Grand Forks AFB, ND

9:08 AM CDT on July 26, 2017 (GMT -0500)
Grand Forks Air Force Base

Weather History for KRDR - February, 2013

Change the Weather History Date:

Monday, February 4, 2013

  Actual Average Record
Temperature  
Mean Temperature 14 °F -  
Max Temperature 30 °F 19 °F 36 °F (2011)
Min Temperature 0 °F 1 °F -24 °F (2007)
Degree Days  
Heating Degree Days 50    
Moisture  
Dew Point 8 °F    
Average Humidity 79    
Maximum Humidity 86    
Minimum Humidity 66    
Precipitation  
Precipitation 0.00 in - - ()
Sea Level Pressure  
Sea Level Pressure 29.74 in    
Wind  
Wind Speed 13 mph (South)    
Max Wind Speed 23 mph    
Max Gust Speed -    
Visibility 6 miles    
Events Snow    
Averages and records for this station are not official NWS values.
T = Trace of Precipitation, MM = Missing Value Source: NWS Daily Summary

Daily Weather History Graph

Daily Weather History Graph

Search for Another Location

Airport or City:

Trip Planner

Search our weather history database for the weather conditions in past years. The results will help you decide how hot, cold, wet, or windy it might be!

Date:

Astronomy

Feb. 04, 2013 Rise Set
Actual Time 7:52 AM CST 5:35 PM CST
Civil Twilight 7:19 AM CST 6:08 PM CST
Nautical Twilight 6:42 AM CST 6:45 PM CST
Astronomical Twilight 6:06 AM CST 7:21 PM CST
Moon 2:35 AM CST (2/4) 11:53 AM CST (2/4)
Length of Visible Light 10h 48m
Length of Day
9h 42m
Last Quarter, 37% of the Moon is Illuminated
Feb 4
Last Quarter
Feb 10
New
Feb 17
First Quarter
Feb 25
Full
Mar 4
Last Quarter

Hourly Weather History & Observations

Time (CST) Temp. Windchill Dew Point Humidity Pressure Visibility Wind Dir Wind Speed Gust Speed Precip Events Conditions
12:55 AM 0.7 °F - -6.7 °F 71% 30.08 in 10.0 mi Calm Calm - N/A   Overcast
1:55 AM 1.2 °F -8.5 °F -7.2 °F 68% 30.07 in 10.0 mi SSW 4.6 mph - N/A   Overcast
2:19 AM 1.4 °F -8.3 °F -7.6 °F 66% 30.08 in 10.0 mi SSW 4.6 mph - N/A   Overcast
2:44 AM 1.4 °F -9.9 °F -5.8 °F 72% 30.07 in 10.0 mi SSW 5.8 mph - N/A   Overcast
2:55 AM 1.8 °F -7.8 °F -6.0 °F 70% 30.07 in 10.0 mi SSW 4.6 mph - N/A   Overcast
5:55 AM 4.5 °F -8.7 °F -2.7 °F 72% 30.03 in 10.0 mi South 8.1 mph - N/A   Overcast
6:55 AM 5.0 °F -8.1 °F -1.8 °F 73% 30.03 in 10.0 mi SSW 8.1 mph - N/A   Overcast
7:55 AM 5.5 °F -9.3 °F -1.1 °F 74% 30.01 in 10.0 mi SSW 10.4 mph - N/A   Overcast
8:55 AM 6.6 °F -9.5 °F -0.6 °F 72% 29.99 in 10.0 mi South 12.7 mph - N/A   Overcast
9:55 AM 7.9 °F -8.6 °F -0.2 °F 70% 29.97 in 10.0 mi SSW 13.8 mph - N/A   Overcast
10:55 AM 9.0 °F -7.3 °F 0.3 °F 68% 29.95 in 10.0 mi SSW 13.8 mph - N/A   Mostly Cloudy
11:55 AM 10.6 °F -6.9 °F 2.1 °F 69% 29.92 in 10.0 mi South 17.3 mph - N/A   Clear
12:27 PM 10.4 °F -6.6 °F 3.2 °F 73% 29.90 in 10.0 mi South 16.1 mph - N/A   Overcast
12:54 PM 12.2 °F -5.3 °F 3.2 °F 67% 29.87 in 10.0 mi South 18.4 mph - N/A   Overcast
12:55 PM 11.5 °F -6.3 °F 3.6 °F 71% 29.87 in 10.0 mi South 18.4 mph - N/A   Overcast
1:23 PM 12.2 °F -6.3 °F 5.0 °F 73% 29.84 in 10.0 mi South 20.7 mph - N/A   Overcast
1:31 PM 12.2 °F -5.8 °F 5.0 °F 73% 29.84 in 10.0 mi South 19.6 mph - N/A   Mostly Cloudy
1:50 PM 12.2 °F -6.3 °F 5.0 °F 73% 29.82 in 10.0 mi South 20.7 mph - N/A   Overcast
1:55 PM 13.1 °F -5.5 °F 6.1 °F 74% 29.82 in 10.0 mi South 21.9 mph - N/A   Mostly Cloudy
2:28 PM 14.0 °F -3.4 °F 6.8 °F 73% 29.79 in 10.0 mi South 19.6 mph - N/A   Overcast
2:31 PM 14.0 °F -3.0 °F 6.8 °F 73% 29.79 in 9.0 mi South 18.4 mph - N/A Snow Light Snow
2:34 PM 14.0 °F -3.9 °F 6.8 °F 73% 29.79 in 7.0 mi South 20.7 mph - N/A Snow Light Snow
2:38 PM 12.2 °F -5.3 °F 6.8 °F 79% 29.78 in 4.0 mi South 18.4 mph - N/A Snow Light Snow
2:45 PM 12.2 °F -4.8 °F 6.8 °F 79% 29.78 in 3.0 mi South 17.3 mph - N/A Snow Light Snow
2:50 PM 12.2 °F -5.3 °F 6.8 °F 79% 29.78 in 3.0 mi South 18.4 mph - N/A Snow Light Snow
2:55 PM 13.1 °F -3.7 °F 7.3 °F 78% 29.77 in 3.0 mi South 17.3 mph - 0.00 in Snow Light Snow
2:56 PM 12.2 °F -5.3 °F 6.8 °F 79% 29.77 in 3.0 mi South 18.4 mph - N/A Snow Light Snow
3:02 PM 12.2 °F -4.8 °F 6.8 °F 79% 29.77 in 2.5 mi South 17.3 mph - N/A Snow Blowing Snow
3:17 PM 12.2 °F -5.8 °F 6.8 °F 79% 29.76 in 2.5 mi South 19.6 mph - N/A Snow Blowing Snow
3:19 PM 12.2 °F -5.3 °F 6.8 °F 79% 29.76 in 2.5 mi South 18.4 mph - N/A Snow Light Snow
3:26 PM 12.2 °F -5.3 °F 6.8 °F 79% 29.75 in 1.8 mi South 18.4 mph - N/A Snow Light Snow
3:53 PM 12.2 °F -5.3 °F 6.8 °F 79% 29.73 in 2.0 mi South 18.4 mph - N/A Snow Light Snow
3:55 PM 11.8 °F -5.8 °F 7.3 °F 82% 29.73 in 1.8 mi South 18.4 mph - 0.00 in Snow Light Snow
3:58 PM 12.2 °F -7.1 °F 6.8 °F 79% 29.73 in 1.8 mi South 23.0 mph - N/A Snow Light Snow
4:14 PM 12.2 °F -4.8 °F 6.8 °F 79% 29.71 in 1.5 mi SSE 17.3 mph - N/A Snow Light Snow
4:20 PM 12.2 °F -5.8 °F 6.8 °F 79% 29.71 in 1.8 mi SSE 19.6 mph - N/A Snow Light Snow
4:30 PM 12.2 °F -6.3 °F 6.8 °F 79% 29.70 in 1.8 mi South 20.7 mph - N/A Snow Light Snow
4:45 PM 12.2 °F -5.3 °F 6.8 °F 79% 29.69 in 1.2 mi South 18.4 mph - N/A Snow Light Snow
4:47 PM 12.2 °F -6.3 °F 6.8 °F 79% 29.69 in 1.2 mi South 20.7 mph - N/A Snow Light Snow
4:55 PM 11.5 °F -6.7 °F 7.2 °F 83% 29.69 in 1.2 mi South 19.6 mph - 0.00 in Snow Light Snow
4:56 PM 12.2 °F -6.3 °F 6.8 °F 79% 29.68 in 1.0 mi South 20.7 mph - N/A Snow Light Snow
4:59 PM 12.2 °F -5.3 °F 6.8 °F 79% 29.68 in 1.2 mi South 18.4 mph - N/A Snow Light Snow
5:04 PM 12.2 °F -6.3 °F 6.8 °F 79% 29.67 in 1.5 mi South 20.7 mph - N/A Snow Light Snow
5:12 PM 12.2 °F -5.8 °F 6.8 °F 79% 29.66 in 1.5 mi South 19.6 mph - N/A Snow Light Snow
5:15 PM 12.2 °F -5.8 °F 6.8 °F 79% 29.66 in 1.5 mi South 19.6 mph - N/A Snow Light Snow
5:38 PM 12.2 °F -5.3 °F 8.6 °F 85% 29.66 in 2.0 mi South 18.4 mph - N/A Snow Light Snow
5:45 PM 12.2 °F -5.3 °F 8.6 °F 85% 29.65 in 2.0 mi South 18.4 mph - N/A Snow Light Snow
5:55 PM 13.5 °F -3.2 °F 9.5 °F 84% 29.65 in 2.5 mi South 17.3 mph - 0.00 in Snow Light Snow
5:56 PM 14.0 °F -3.0 °F 10.4 °F 86% 29.64 in 3.0 mi South 18.4 mph - N/A Snow Light Snow
6:14 PM 14.0 °F -3.0 °F 10.4 °F 86% 29.64 in 2.5 mi South 18.4 mph - N/A Snow Light Snow
6:17 PM 14.0 °F -3.4 °F 10.4 °F 86% 29.64 in 2.0 mi South 19.6 mph - N/A Snow Light Snow
6:31 PM 15.8 °F -0.6 °F 10.4 °F 79% 29.63 in 2.5 mi South 18.4 mph - N/A Snow Light Snow
6:34 PM 15.8 °F -1.1 °F 12.2 °F 86% 29.63 in 1.8 mi South 19.6 mph - N/A Snow Light Snow
6:38 PM 15.8 °F -1.1 °F 12.2 °F 86% 29.62 in 1.2 mi South 19.6 mph - N/A Snow Light Snow
6:41 PM 15.8 °F -0.6 °F 12.2 °F 86% 29.62 in 1.0 mi South 18.4 mph - N/A Snow Light Snow
6:43 PM 15.8 °F -0.2 °F 12.2 °F 86% 29.62 in 1.2 mi South 17.3 mph - N/A Snow Light Snow
6:44 PM 15.8 °F -0.6 °F 12.2 °F 86% 29.62 in 1.2 mi South 18.4 mph - N/A Snow Light Snow
6:46 PM 15.8 °F -0.2 °F 12.2 °F 86% 29.62 in 1.8 mi South 17.3 mph - N/A Snow Light Snow
6:47 PM 15.8 °F -0.6 °F 12.2 °F 86% 29.62 in 2.0 mi SSW 18.4 mph - N/A Snow Light Snow
6:49 PM 15.8 °F -0.6 °F 12.2 °F 86% 29.61 in 3.0 mi SSW 18.4 mph - N/A Snow Light Snow
6:53 PM 15.8 °F 0.3 °F 12.2 °F 86% 29.61 in 5.0 mi SSW 16.1 mph - N/A Snow Light Snow
6:55 PM 16.2 °F -0.2 °F 12.4 °F 85% 29.61 in 4.0 mi SSW 18.4 mph - 0.00 in Snow Light Snow
7:03 PM 15.8 °F -1.1 °F 12.2 °F 86% 29.61 in 9.0 mi South 19.6 mph - N/A   Overcast
7:05 PM 15.8 °F -1.1 °F 12.2 °F 86% 29.61 in 9.0 mi South 19.6 mph - N/A   Overcast
7:14 PM 17.6 °F 1.7 °F 12.2 °F 79% 29.60 in 10.0 mi South 18.4 mph - N/A   Overcast
7:55 PM 17.8 °F 2.4 °F 13.8 °F 84% 29.58 in 10.0 mi South 17.3 mph - 0.00 in   Overcast
8:05 PM 17.6 °F 2.7 °F 14.0 °F 86% 29.58 in 10.0 mi South 16.1 mph - N/A   Scattered Clouds
8:11 PM 17.6 °F 2.7 °F 14.0 °F 86% 29.58 in 10.0 mi South 16.1 mph - N/A   Scattered Clouds
8:55 PM 18.3 °F 7.3 °F 14.5 °F 85% 29.56 in 10.0 mi South 9.2 mph - N/A   Clear
9:55 PM 18.9 °F 7.2 °F 15.1 °F 85% 29.56 in 10.0 mi WSW 10.4 mph - N/A   Clear
10:13 PM 21.2 °F 10.9 °F 17.6 °F 86% 29.56 in 10.0 mi West 9.2 mph - N/A   Mostly Cloudy
10:55 PM 29.7 °F 19.1 °F 24.3 °F 80% 29.56 in 10.0 mi NW 13.8 mph - N/A   Overcast
11:55 PM 29.5 °F 18.4 °F 24.4 °F 81% 29.60 in 10.0 mi NNW 15.0 mph - N/A   Overcast
11:57 PM 30.2 °F 19.3 °F 24.8 °F 80% 29.60 in 10.0 mi North 15.0 mph - N/A   Overcast